Dewpoint
54 53 51 49 50 50 51 52 51 46 45 44 44 42 43 44 44 45 45 46 46 46 45 45 44 44 44 43 42 42 41 41 41 41 41 41 41 40
50 49 48 47 46 47 47 47 48 49 45 43 41 40 41 41 41 40 40 41 42 43 42 42 42 42 41 40 40 39 38 38 37 37 37 36 36 37
48 47 45 44 43 43 44 44 45 45 44 38 38 38 39 39 39 40 38 38 37 38 38 38 38 37 37 36 35 35 35 35 35 35 35 35 37 38
44 43 41 41 41 41 42 41 42 42 42 39 37 36 37 37 37 36 35 34 34 32 33 33 33 33 33 33 33 33 33 33 33 35 34 34 34 35
42 42 40 40 39 39 39 39 38 38 40 39 35 35 34 35 35 34 31 30 26 25 27 28 29 29 29 30 31 31 32 33 34 34 34 34 34 34
39 38 38 38 37 37 36 36 36 36 37 37 36 35 34 33 31 29 27 25 24 22 24 25 27 29 30 29 28 29 32 32 32 31 32 33 33 33
36 36 36 35 35 34 35 35 35 34 35 36 34 32 32 29 28 25 22 21 21 22 21 20 21 22 23 25 27 29 29 30 32 33 33 33 33 33
36 36 36 36 36 35 33 31 30 31 31 31 31 28 24 23 22 21 21 20 16 23 22 20 23 22 23 24 26 29 30 31 31 32 32 32 31 31
34 34 31 31 32 32 32 31 31 29 27 23 21 19 20 21 25 25 22 22 19 22 23 21 22 21 23 22 25 28 29 30 31 30 30 30 31 31
29 28 26 25 25 25 24 25 26 25 23 21 21 21 22 23 23 26 24 23 25 23 24 24 23 22 23 23 25 29 30 31 29 30 29 29 30 30
25 27 27 27 26 25 25 24 22 26 29 28 29 28 28 29 27 25 26 25 22 21 23 23 24 24 24 23 21 26 27 28 29 28 28 29 29 30
23 24 25 23 28 22 17 18 18 19 22 21 22 23 26 28 27 25 25 26 25 25 25 25 25 24 25 24 23 24 23 23 24 27 26 28 28 27
22 23 25 25 24 26 19 13 14 19 25 20 19 21 22 23 24 24 25 27 25 25 25 24 24 24 23 23 23 24 25 24 23 24 25 26 27 28
16 17 19 24 22 23 24 23 27 25 19 18 20 21 22 23 24 24 24 25 25 25 26 27 24 24 23 22 22 23 24 25 25 26 26 27 28 27
16 19 24 25 21 21 23 24 27 22 18 19 21 23 25 25 26 26 25 25 26 25 27 26 24 24 24 22 22 22 23 24 26 27 28 28 27 27
22 24 21 19 21 16 22 25 23 20 19 21 22 23 24 24 24 23 23 23 23 23 26 26 25 24 23 23 23 22 23 23 26 26 27 26 27 27
21 18 15 15 17 17 18 19 19 19 21 21 23 23 23 22 22 23 23 22 21 21 22 24 25 24 24 24 22 22 23 25 27 26 25 25 26 26
20 15 11 9 10 11 13 15 17 19 21 23 23 23 23 22 22 22 22 22 21 21 21 22 22 22 22 23 25 23 23 24 25 25 25 24 24 25
22 17 16 15 12 13 14 16 19 20 24 24 24 23 23 22 22 21 21 21 20 20 21 22 22 21 19 19 20 26 24 24 25 24 24 25 24 25
23 22 21 19 17 16 16 18 19 21 23 23 23 23 23 22 21 20 20 20 20 19 20 21 21 21 20 19 20 20 22 23 22 23 23 24 25 25
23 23 21 19 17 18 19 19 20 20 21 22 22 22 22 21 20 20 19 18 18 19 19 20 21 22 22 22 19 19 22 23 23 23 24 24 23 23
22 21 19 19 19 20 20 20 20 19 20 21 20 21 21 21 20 20 19 18 17 17 18 19 20 20 20 18 18 19 21 21 22 22 23 23 23 21
25 24 23 23 24 23 23 22 21 19 20 20 20 20 20 19 18 18 18 18 17 17 17 16 17 18 19 20 19 19 19 20 21 22 24 24 24 26
Wind_Speed
8 9 8 5 3 1 1 3 5 9 8 3 2 6 6 7 10 8 10 15 14 13 13 12 10 9 7 4 5 6 7 7 6 6 7 7 8 10
8 8 7 6 4 3 1 0 2 4 4 2 3 3 4 4 7 6 7 8 11 10 8 8 7 6 5 6 5 5 5 5 5 6 7 8 8 8
7 7 7 7 5 3 2 2 2 1 5 2 1 3 2 1 2 3 5 5 5 8 7 6 4 4 3 3 3 3 5 6 7 7 8 8 7 8
7 8 8 8 6 5 4 3 3 2 3 4 2 2 3 2 2 3 4 4 4 6 5 4 3 4 3 3 4 5 6 7 6 6 6 7 8 9
6 7 9 8 7 5 5 5 4 3 3 4 4 2 1 1 1 1 3 2 2 3 2 2 3 3 3 4 6 7 6 6 7 7 7 7 8 8
8 7 8 7 8 8 6 6 5 6 6 6 5 4 3 2 1 0 1 0 0 1 1 3 5 2 5 7 7 7 6 6 7 7 8 8 8 9
10 11 9 9 9 6 5 5 5 4 4 5 5 4 3 3 1 1 1 3 0 3 4 3 4 5 5 7 7 6 6 6 7 8 9 9 10 10
12 12 11 11 12 12 11 9 4 4 5 4 3 4 3 2 1 0 2 3 2 2 6 6 3 4 3 5 2 6 8 9 11 10 9 8 7 9
10 10 9 8 9 10 10 9 10 10 7 3 4 2 3 2 2 1 1 2 3 3 6 4 1 4 3 5 7 11 13 11 7 2 5 7 9 11
8 8 8 7 6 6 6 7 7 6 5 4 4 4 4 4 2 2 1 3 4 1 4 3 2 6 5 7 1 6 5 7 6 4 7 7 10 13
7 7 7 7 7 5 6 7 6 6 7 6 7 6 3 1 2 2 2 2 2 1 2 3 4 8 8 6 3 2 6 3 7 11 10 12 14 13
7 7 5 5 7 4 5 6 6 6 5 4 4 3 3 4 2 2 2 3 2 3 1 4 5 6 6 1 3 5 6 8 11 11 14 13 11 11
7 7 5 5 5 5 2 4 4 7 5 3 4 4 4 3 2 1 1 1 3 4 3 3 3 4 3 7 8 7 9 9 10 12 11 11 10 8
7 6 6 6 5 5 5 5 6 4 4 4 5 4 4 3 2 1 1 2 4 7 6 4 4 3 7 12 9 5 10 11 12 11 11 10 12 15
5 6 5 6 5 4 5 7 8 4 4 5 5 5 4 2 2 4 3 4 6 8 8 7 9 9 9 10 11 12 12 7 13 12 10 11 13 13
7 6 4 4 5 4 6 7 6 5 6 6 5 4 4 4 5 5 5 4 6 7 4 6 8 9 11 13 13 16 15 10 8 12 12 12 12 12
7 5 6 6 8 7 7 7 6 7 7 6 6 6 6 5 6 5 6 5 6 7 8 5 6 9 12 14 15 16 16 14 12 11 11 14 13 14
8 7 8 9 10 9 9 9 9 9 9 8 8 7 7 7 7 7 7 6 7 9 9 7 7 8 8 13 21 15 13 13 10 10 11 15 17 13
11 9 10 10 9 9 10 10 10 10 7 9 9 8 8 8 8 9 8 8 9 10 10 8 7 7 9 13 9 21 14 13 13 14 13 14 18 16
13 12 12 10 10 10 11 11 10 9 9 10 10 10 9 10 10 10 9 9 11 11 12 10 9 9 11 10 9 12 11 16 16 16 15 14 15 21
14 14 12 11 11 11 11 11 10 10 10 10 11 11 11 11 11 11 11 12 13 12 14 13 10 8 10 8 11 17 13 18 20 18 15 16 18 18
13 14 13 12 12 11 11 11 10 11 11 12 12 12 11 12 12 12 12 12 12 12 14 13 11 10 10 12 16 18 18 13 11 19 24 23 16 9
16 15 13 13 12 12 12 12 12 12 12 11 12 11 11 12 12 12 13 13 12 12 12 14 13 12 14 14 17 18 20 20 16 16 16 18 23 27
Wind_Direction
138 125 125 112 96 75 216 215 238 250 239 126 139 56 48 40 36 49 54 53 59 57 55 55 53 53 67 47 21 353 332 319 315 308 292 291 285 280
119 120 116 120 116 92 56 148 238 244 211 36 86 51 65 59 44 47 42 46 42 42 36 38 42 33 22 7 349 329 313 308 310 308 308 306 306 307
130 130 131 130 122 119 122 129 168 208 229 124 113 47 71 58 55 52 37 38 29 32 29 27 29 19 1 325 315 322 316 307 307 308 301 300 322 320
139 144 137 120 120 124 131 136 134 129 163 162 111 85 71 55 49 52 47 39 28 32 29 23 22 35 28 350 322 304 295 292 295 310 300 301 303 311
149 147 130 137 126 125 129 133 127 131 123 147 134 143 115 97 107 90 54 53 59 45 37 10 337 318 300 297 298 290 283 291 292 294 292 290 291 291
109 107 113 129 135 133 136 122 119 109 118 126 130 151 160 136 164 89 181 90 333 341 288 306 306 291 272 276 281 283 282 283 289 292 292 287 283 291
110 107 101 107 107 113 122 111 114 137 145 146 153 161 171 178 202 52 293 310 218 347 317 290 294 276 265 252 267 258 270 279 292 294 288 285 286 288
121 111 109 105 106 97 89 79 78 142 136 141 153 182 164 134 137 313 317 312 283 76 332 304 307 288 286 272 325 293 287 284 287 286 278 272 294 296
121 115 110 103 105 105 99 94 87 75 69 133 159 154 146 133 81 253 329 291 281 344 319 288 303 289 285 284 283 298 285 273 260 276 303 287 281 279
124 126 128 127 122 146 149 117 103 92 82 87 96 110 98 136 142 168 261 294 274 299 330 281 344 304 311 300 334 311 295 227 180 307 295 282 291 288
128 132 139 134 127 152 146 141 136 115 100 88 91 91 86 185 235 187 231 269 267 221 356 307 340 317 302 298 310 320 338 337 285 287 283 294 297 289
142 141 144 135 144 144 162 167 173 163 158 157 150 141 157 100 101 254 231 247 274 264 100 331 332 350 319 295 297 286 282 280 288 279 292 297 291 289
164 165 165 157 160 160 163 167 166 158 148 160 174 171 170 164 161 104 69 217 246 257 63 350 299 315 287 305 310 294 295 298 296 303 297 292 293 284
178 176 178 183 172 175 174 158 163 161 160 180 190 189 195 197 193 283 289 263 258 255 283 300 261 262 286 294 282 301 301 296 293 293 301 295 294 290
174 165 158 187 186 189 201 190 175 194 194 203 207 205 205 193 237 245 239 247 253 262 262 252 254 266 264 261 276 290 309 296 294 284 282 294 296 294
166 173 184 203 207 218 196 187 205 217 219 224 217 200 197 227 249 259 266 272 283 282 216 240 244 242 256 260 269 278 280 275 281 290 290 289 285 279
173 181 191 201 205 205 208 214 216 214 215 217 215 223 231 237 253 257 264 269 266 278 280 260 241 251 255 258 269 266 275 274 274 283 287 284 281 281
188 203 212 214 216 212 214 215 217 220 221 220 224 232 241 249 258 258 260 258 273 278 277 280 286 296 277 249 228 257 271 279 286 284 280 284 286 282
215 221 223 218 217 217 218 220 222 222 214 220 226 232 240 248 254 262 264 265 273 275 274 277 271 271 284 286 283 212 256 273 281 283 275 270 280 286
224 228 227 223 221 219 220 223 223 218 217 222 225 231 236 243 251 255 263 265 273 279 279 270 255 255 260 280 297 272 252 272 274 279 282 281 278 287
220 228 229 226 223 221 222 223 224 223 220 222 228 230 233 239 248 253 261 262 266 270 273 270 269 280 280 280 265 270 267 235 245 264 279 285 287 289
222 225 225 223 222 219 219 218 221 229 226 226 231 231 233 236 245 251 257 261 264 264 268 277 279 271 259 251 269 283 290 292 276 267 263 256 262 273
223 222 220 217 217 216 217 219 220 227 227 226 229 230 229 236 242 249 253 254 261 266 267 277 279 270 266 261 269 278 284 290 295 291 276 264 260 258